sat.trackr.live / text

‹ back to catalog

KUIPER-00584

NORAD 69274 · 2026-118H

PAYLOAD ACTIVE UNKNOWN

§ Identity

Operator
Country
US
Launch date
2026-05-29
Launch site
AFETR
Launch vehicle
Mass (kg)
RCS (m²)

External: N2YO · Heavens-Above · Gunter

§ Orbital elements

Epoch: 2026-09-19T22:16:44.953248Z

Period
97.30 min
Inclination
51.9021°
Eccentricity
0.0000250
Mean motion
14.79932471 rev/d
Perigee alt
629.4 km
Apogee alt
629.7 km
Semi-major
7,007.7 km
B*
1.8976e-4
RAAN
346.8316°
Arg perigee
86.4021°
Mean anomaly
273.6970°
Rev number
1,811

§ Raw data

KUIPER-005841 69274U 26118H   26262.92829807  .00001226  00000+0  18976-3 0  99932 69274  51.9021 346.8316 0000250  86.4021 273.6970 14.79932471 18119

JSON: /api/v1/satellites/69274 · /tle

For live sub-satellite position, see the globe view (requires WebGL).

§ Visibility from observer

Set your observer location to see the next 7 days of passes ≥ 10°. The values pass through the URL so the page stays shareable.

No JS? Fill the form by hand. The geolocation button needs JavaScript.